When you browse on this site, cookies collect data to enhance your experience and personalize the content and advertising you see.
Visit our Privacy Policy to learn more. By continuing to use the site, you agree to this use of cookies and data.
  • In Österreich
  • Länderverzeichnis
  • Für 7 Tage
  • Wassertemperatur
  • Wetterkarte
  • News
  • Widgets
  • user-avatar
    Anmelden

    Stündliche Wetter San Juan

    Heute, 19 September, Donnerstag

    Zeit Temperatur Niederschläge Wind Luftdruck Luftfeuchtigkeit
    00:00 +29°C° 0 mm 3 m/S 757 mmHg 83%
    01:00 +29°C° 0 mm 3 m/S 757 mmHg 83%
    02:00 +28°C° 0 mm 3 m/S 756 mmHg 83%
    03:00 +28°C° 0 mm 3 m/S 756 mmHg 84%
    04:00 +28°C° 0 mm 3 m/S 756 mmHg 85%
    05:00 +28°C° 0 mm 3 m/S 756 mmHg 86%
    06:00 +29°C° 0 mm 3 m/S 756 mmHg 84%
    07:00 +29°C° 0 mm 4 m/S 756 mmHg 83%
    08:00 +30°C° 0 mm 4 m/S 757 mmHg 81%
    09:00 +30°C° 0 mm 4 m/S 757 mmHg 77%
    10:00 +32°C° 0 mm 4 m/S 757 mmHg 72%
    11:00 +33°C° 0 mm 4 m/S 757 mmHg 68%
    12:00 +33°C° 0 mm 4 m/S 757 mmHg 66%
    13:00 +33°C° 0 mm 4 m/S 757 mmHg 64%
    14:00 +34°C° 0 mm 4 m/S 757 mmHg 63%
    15:00 +33°C° 0.2 mm 4 m/S 756 mmHg 66%
    16:00 +33°C° 0.2 mm 4 m/S 756 mmHg 69%
    17:00 +32°C° 0.2 mm 4 m/S 756 mmHg 73%
    18:00 +30°C° 0 mm 4 m/S 757 mmHg 76%
    19:00 +30°C° 0 mm 3 m/S 757 mmHg 80%
    20:00 +29°C° 0 mm 3 m/S 757 mmHg 83%
    21:00 +29°C° 0.1 mm 3 m/S 758 mmHg 84%
    22:00 +29°C° 0.1 mm 3 m/S 758 mmHg 84%
    23:00 +28°C° 0.1 mm 2 m/S 758 mmHg 85%

    Morgen, 20 September, Freitag

    Zeit Temperatur Niederschläge Wind Luftdruck Luftfeuchtigkeit
    00:00 +28°C° 0 mm 2 m/S 758 mmHg 85%
    01:00 +28°C° 0 mm 2 m/S 758 mmHg 86%
    02:00 +28°C° 0 mm 2 m/S 757 mmHg 86%
    03:00 +28°C° 0 mm 3 m/S 757 mmHg 87%
    04:00 +28°C° 0 mm 3 m/S 757 mmHg 87%
    05:00 +28°C° 0 mm 3 m/S 757 mmHg 87%
    06:00 +28°C° 0 mm 3 m/S 758 mmHg 85%
    07:00 +29°C° 0 mm 3 m/S 758 mmHg 83%
    08:00 +30°C° 0 mm 3 m/S 759 mmHg 81%
    09:00 +32°C° 0 mm 4 m/S 759 mmHg 77%
    10:00 +33°C° 0 mm 4 m/S 759 mmHg 73%
    11:00 +33°C° 0 mm 5 m/S 759 mmHg 69%
    12:00 +34°C° 0 mm 5 m/S 759 mmHg 67%
    13:00 +34°C° 0 mm 5 m/S 758 mmHg 65%
    14:00 +34°C° 0 mm 5 m/S 758 mmHg 63%
    15:00 +34°C° 0 mm 4 m/S 758 mmHg 65%
    16:00 +33°C° 0 mm 4 m/S 758 mmHg 68%
    17:00 +33°C° 0 mm 4 m/S 757 mmHg 71%
    18:00 +31°C° 0 mm 3 m/S 758 mmHg 74%
    19:00 +30°C° 0 mm 3 m/S 758 mmHg 76%
    20:00 +29°C° 0 mm 2 m/S 759 mmHg 79%
    21:00 +29°C° 0.2 mm 2 m/S 759 mmHg 79%
    22:00 +29°C° 0.2 mm 1 m/S 759 mmHg 79%
    23:00 +28°C° 0.2 mm 1 m/S 759 mmHg 79%

    übermorgen, 21 September, Samstag

    Zeit Temperatur Niederschläge Wind Luftdruck Luftfeuchtigkeit
    00:00 +28°C° 0.1 mm 1 m/S 759 mmHg 78%
    01:00 +28°C° 0.1 mm 1 m/S 759 mmHg 78%
    02:00 +28°C° 0.1 mm 2 m/S 758 mmHg 78%
    03:00 +28°C° 0 mm 2 m/S 758 mmHg 77%
    04:00 +28°C° 0 mm 2 m/S 758 mmHg 77%
    05:00 +28°C° 0 mm 2 m/S 759 mmHg 76%
    06:00 +28°C° 0.1 mm 2 m/S 759 mmHg 76%
    07:00 +29°C° 0.1 mm 2 m/S 759 mmHg 76%
    08:00 +30°C° 0.1 mm 2 m/S 760 mmHg 76%
    09:00 +31°C° 0 mm 2 m/S 760 mmHg 71%
    10:00 +32°C° 0 mm 2 m/S 760 mmHg 67%
    11:00 +34°C° 0 mm 2 m/S 760 mmHg 62%
    12:00 +34°C° 0 mm 3 m/S 760 mmHg 62%
    13:00 +34°C° 0 mm 3 m/S 759 mmHg 63%
    14:00 +34°C° 0 mm 4 m/S 759 mmHg 63%
    15:00 +34°C° 0 mm 4 m/S 759 mmHg 65%
    16:00 +33°C° 0 mm 4 m/S 758 mmHg 68%
    17:00 +33°C° 0 mm 4 m/S 758 mmHg 71%
    18:00 +32°C° 0.1 mm 4 m/S 758 mmHg 74%
    19:00 +30°C° 0.1 mm 4 m/S 759 mmHg 77%
    20:00 +30°C° 0.1 mm 3 m/S 759 mmHg 80%
    21:00 +29°C° 0.3 mm 3 m/S 759 mmHg 81%
    22:00 +29°C° 0.3 mm 3 m/S 760 mmHg 82%
    23:00 +29°C° 0.3 mm 3 m/S 760 mmHg 84%

    22 September, Sonntag

    Zeit Temperatur Niederschläge Wind Luftdruck Luftfeuchtigkeit
    00:00 +29°C° 0.1 mm 3 m/S 759 mmHg 84%
    01:00 +29°C° 0.1 mm 4 m/S 759 mmHg 84%
    02:00 +29°C° 0.1 mm 4 m/S 759 mmHg 85%
    03:00 +29°C° 0 mm 4 m/S 758 mmHg 84%
    04:00 +29°C° 0 mm 4 m/S 758 mmHg 84%
    05:00 +29°C° 0 mm 4 m/S 758 mmHg 84%
    06:00 +29°C° 0 mm 4 m/S 759 mmHg 81%
    07:00 +30°C° 0 mm 4 m/S 759 mmHg 79%
    08:00 +30°C° 0 mm 4 m/S 760 mmHg 76%
    09:00 +32°C° 0.1 mm 4 m/S 760 mmHg 72%
    10:00 +33°C° 0.1 mm 5 m/S 760 mmHg 69%
    11:00 +34°C° 0.1 mm 5 m/S 760 mmHg 65%
    12:00 +34°C° 0.1 mm 5 m/S 760 mmHg 66%
    13:00 +34°C° 0.1 mm 5 m/S 759 mmHg 67%
    14:00 +34°C° 0.1 mm 6 m/S 759 mmHg 68%
    15:00 +33°C° 0 mm 5 m/S 759 mmHg 69%
    16:00 +33°C° 0 mm 5 m/S 758 mmHg 70%
    17:00 +33°C° 0 mm 5 m/S 758 mmHg 72%
    18:00 +32°C° 0 mm 4 m/S 758 mmHg 75%
    19:00 +30°C° 0 mm 4 m/S 759 mmHg 79%
    20:00 +29°C° 0 mm 4 m/S 759 mmHg 83%
    21:00 +29°C° 0 mm 3 m/S 759 mmHg 84%
    22:00 +29°C° 0 mm 3 m/S 759 mmHg 85%
    23:00 +29°C° 0 mm 3 m/S 760 mmHg 85%

    23 September, Montag

    Zeit Temperatur Niederschläge Wind Luftdruck Luftfeuchtigkeit
    00:00 +29°C° 0 mm 3 m/S 759 mmHg 86%
    01:00 +28°C° 0 mm 3 m/S 759 mmHg 87%
    02:00 +28°C° 0 mm 3 m/S 759 mmHg 88%
    03:00 +28°C° 0 mm 3 m/S 759 mmHg 88%
    04:00 +28°C° 0 mm 3 m/S 759 mmHg 88%
    05:00 +28°C° 0 mm 3 m/S 758 mmHg 88%
    06:00 +29°C° 0.1 mm 3 m/S 759 mmHg 86%
    07:00 +29°C° 0.1 mm 3 m/S 759 mmHg 83%
    08:00 +30°C° 0.1 mm 4 m/S 760 mmHg 81%
    09:00 +32°C° 0 mm 4 m/S 760 mmHg 76%
    10:00 +33°C° 0 mm 5 m/S 760 mmHg 71%
    11:00 +34°C° 0 mm 5 m/S 760 mmHg 66%
    12:00 +34°C° 0.2 mm 5 m/S 759 mmHg 66%
    13:00 +34°C° 0.2 mm 5 m/S 759 mmHg 66%
    14:00 +34°C° 0.2 mm 5 m/S 759 mmHg 66%
    15:00 +33°C° 0 mm 5 m/S 758 mmHg 68%
    16:00 +33°C° 0 mm 5 m/S 758 mmHg 70%
    17:00 +32°C° 0 mm 5 m/S 758 mmHg 72%
    18:00 +30°C° 0 mm 5 m/S 758 mmHg 76%
    19:00 +30°C° 0 mm 4 m/S 758 mmHg 79%
    20:00 +29°C° 0 mm 4 m/S 758 mmHg 83%
    21:00 +29°C° 0 mm 4 m/S 758 mmHg 84%
    22:00 +28°C° 0 mm 3 m/S 759 mmHg 84%
    23:00 +28°C° 0 mm 3 m/S 759 mmHg 85%

    24 September, Dienstag

    Zeit Temperatur Niederschläge Wind Luftdruck Luftfeuchtigkeit
    00:00 +28°C° 0 mm 3 m/S 758 mmHg 85%
    01:00 +28°C° 0 mm 3 m/S 758 mmHg 86%
    02:00 +28°C° 0 mm 3 m/S 758 mmHg 86%
    03:00 +28°C° 0 mm 3 m/S 758 mmHg 87%
    04:00 +28°C° 0 mm 3 m/S 757 mmHg 87%
    05:00 +27°C° 0 mm 2 m/S 757 mmHg 87%
    06:00 +28°C° 0.1 mm 3 m/S 758 mmHg 85%
    07:00 +29°C° 0.1 mm 3 m/S 758 mmHg 83%
    08:00 +30°C° 0.1 mm 3 m/S 758 mmHg 80%
    09:00 +30°C° 0 mm 3 m/S 758 mmHg 77%
    10:00 +32°C° 0 mm 4 m/S 759 mmHg 73%
    11:00 +33°C° 0 mm 4 m/S 759 mmHg 70%
    12:00 +33°C° 0.2 mm 5 m/S 758 mmHg 70%
    13:00 +33°C° 0.2 mm 5 m/S 758 mmHg 69%
    14:00 +34°C° 0.2 mm 5 m/S 757 mmHg 69%
    15:00 +33°C° 0.4 mm 5 m/S 757 mmHg 72%
    16:00 +33°C° 0.4 mm 5 m/S 757 mmHg 74%
    17:00 +32°C° 0.4 mm 5 m/S 757 mmHg 76%
    18:00 +30°C° 0.1 mm 4 m/S 757 mmHg 79%
    19:00 +30°C° 0.1 mm 4 m/S 757 mmHg 82%
    20:00 +29°C° 0.1 mm 4 m/S 758 mmHg 85%
    21:00 +29°C° 0 mm 3 m/S 758 mmHg 85%
    22:00 +28°C° 0 mm 3 m/S 758 mmHg 85%
    23:00 +28°C° 0 mm 3 m/S 758 mmHg 85%
    Mehr zeigen